Location: Unspecified
(0.0000°N, 0.0000°E)
Time: 00:01:43
(UTC+00:00)

METEOR M2 - Visible Passes

Search period start: 07 December 2021 00:00
Search period end: 17 December 2021 00:00
Orbit: 818 x 827 km, 98.4° (Epoch: 06 December)

Date Brightness Start Highest point End Pass type
(mag) Time Alt. Az. Time Alt. Az. Time Alt. Az.
07 Dec ? 18:10:27 10° SE 18:14:35 22° ENE 18:18:40 10° NNE visible
07 Dec ? 19:50:12 10° SSW 19:54:27 24° WSW 19:58:42 10° NW visible
08 Dec ? 19:29:34 10° S 19:34:36 41° WSW 19:39:37 10° NNW visible
09 Dec ? 19:09:22 10° S 19:14:44 71° WSW 19:20:05 10° NNW visible
10 Dec ? 18:49:30 10° SSE 18:54:52 68° ENE 19:00:12 10° N visible
11 Dec ? 18:30:01 10° SE 18:35:00 39° ENE 18:39:58 10° N visible
11 Dec ? 20:12:22 10° SW 20:14:52 13° WSW 20:17:21 10° WNW visible
12 Dec ? 19:50:51 10° SSW 19:55:01 23° WSW 19:59:11 10° NW visible
13 Dec ? 19:30:10 10° S 19:35:10 39° WSW 19:40:08 10° NW visible
14 Dec ? 19:09:57 10° S 19:15:18 68° WSW 19:20:38 10° NNW visible
15 Dec ? 18:50:04 10° SSE 18:55:26 70° ENE 19:00:46 10° N visible
16 Dec ? 18:30:32 10° SSE 18:35:34 40° ENE 18:40:33 10° N visible
16 Dec ? 20:13:06 10° SW 20:15:25 13° WSW 20:17:44 10° WNW visible
